GFSSGP_sfc_dewp_366.txt.gz
Dewpoint
65 63 67 65 62 56 41 40 41 43 45 49 49 49 50 53 57 57 65 65 68 69 72 73 77 77 77 77 77 76 76 74 74 74 73 73 73 73 72 73 72 71 72 71 71 72 71 73 72
63 67 67 64 52 39 42 40 43 45 47 50 52 52 53 52 55 58 60 65 66 68 71 72 77 77 77 77 77 76 76 75 75 74 73 73 73 73 72 72 72 72 72 72 71 71 71 73 72
67 69 66 59 51 38 38 42 45 46 48 48 50 56 58 53 54 56 61 63 65 67 68 73 77 77 76 76 76 76 75 75 74 74 74 73 73 73 72 72 71 71 72 71 71 71 72 72 72
66 66 64 53 40 39 40 43 45 46 46 48 52 55 54 55 55 58 61 62 64 66 70 76 77 76 75 76 76 76 76 75 74 74 73 72 72 72 72 71 71 71 72 71 71 72 72 71 71
66 66 59 43 40 41 43 43 44 44 45 47 53 55 55 57 58 58 60 61 61 67 71 73 77 77 76 75 75 75 74 74 74 73 73 73 72 72 72 71 72 72 72 71 72 71 71 70 71
65 63 54 40 39 42 43 44 43 43 43 48 53 56 57 58 57 57 58 60 59 68 68 71 76 77 75 75 75 75 74 74 74 73 73 73 73 73 73 72 72 72 72 73 72 71 70 71 71
63 63 51 40 40 43 44 45 42 43 44 44 50 53 57 56 57 57 59 59 59 65 66 69 71 74 75 75 75 74 74 74 74 73 73 74 74 74 72 73 72 73 73 71 71 71 72 73 73
61 60 48 42 41 41 45 44 45 43 44 47 51 53 54 55 57 58 58 58 60 62 65 67 70 70 71 71 76 75 75 75 75 74 74 74 74 74 74 74 75 73 73 73 73 73 72 72 72
59 56 53 43 42 42 43 43 43 45 46 46 48 50 55 56 56 56 57 56 59 61 63 64 68 70 71 72 73 75 75 74 74 74 74 74 72 72 73 74 76 75 74 73 73 72 73 74 73
62 58 51 42 43 42 45 43 44 45 49 49 48 54 56 56 56 55 55 55 57 57 60 64 65 67 66 66 73 73 72 72 73 73 74 73 71 73 72 74 76 75 74 74 76 76 75 73 72
59 57 43 47 45 45 42 42 49 47 48 51 48 53 54 55 56 55 55 56 56 57 58 65 65 67 66 66 73 71 70 70 72 77 75 73 71 72 71 74 73 74 74 70 73 73 73 73 73
56 54 50 50 50 50 46 44 43 47 46 52 51 53 54 55 54 54 55 55 56 57 57 56 62 66 66 66 70 68 67 70 71 71 76 75 74 70 70 72 73 74 73 73 72 73 71 73 73
58 51 47 48 51 51 47 47 51 48 50 53 53 53 53 53 53 54 53 54 55 57 58 58 65 71 69 71 72 72 69 69 69 71 73 73 73 74 74 72 72 73 71 71 74 72 72 73 74
56 52 49 49 52 50 50 53 50 52 53 54 53 51 52 52 52 53 54 54 56 58 58 58 62 71 69 74 76 74 71 73 71 71 71 74 73 75 74 75 73 72 72 73 74 73 72 72 73
51 55 52 53 52 55 54 53 54 54 54 54 53 51 51 52 52 53 54 56 56 57 58 61 64 67 73 75 75 75 72 66 72 70 75 74 75 75 76 73 73 72 73 74 74 74 73 72 71
51 57 53 53 49 52 51 54 52 55 53 53 54 51 50 51 51 53 55 57 60 60 64 64 60 63 69 73 75 72 70 71 73 72 71 75 75 75 76 71 70 71 73 71 71 72 71 72 71
52 53 52 54 49 53 53 56 61 59 53 53 53 52 49 50 51 54 54 56 58 63 67 68 68 65 70 74 72 72 73 71 69 70 67 74 72 72 73 71 70 72 73 71 71 71 70 70 71
48 43 47 46 45 44 48 53 56 52 51 52 53 53 50 49 49 51 52 53 56 61 66 69 69 73 74 73 73 71 70 69 69 68 66 72 71 73 74 71 72 74 71 71 72 74 74 75 72
43 41 37 38 37 42 39 47 49 50 49 51 52 54 53 51 51 52 52 55 57 62 67 69 71 75 74 72 71 71 69 69 68 68 71 72 71 71 73 70 71 71 71 73 75 75 74 71 70
43 43 37 36 38 43 35 39 45 46 47 48 49 52 53 53 54 56 58 59 59 63 67 71 72 76 74 72 72 72 71 69 68 69 71 71 72 72 72 72 70 70 69 72 72 74 72 74 73
41 42 35 35 33 33 34 34 37 41 44 46 47 50 51 53 53 56 60 61 60 63 67 70 73 75 75 75 73 74 73 73 71 70 74 73 72 72 72 73 72 71 71 69 72 72 74 68 70
41 41 33 33 35 34 36 33 43 37 36 40 43 46 47 50 53 57 59 61 61 62 64 69 73 74 76 76 74 76 71 70 70 71 71 72 76 74 73 73 74 73 68 70 69 73 73 73 69
39 32 32 41 44 48 40 39 37 36 35 38 38 40 41 44 48 49 53 59 59 61 62 66 73 75 75 76 76 74 75 73 73 72 76 74 77 76 74 75 75 74 73 71 71 72 72 71 72
34 35 38 38 41 40 39 42 39 35 36 39 35 37 39 41 44 46 50 55 57 58 60 65 73 75 76 77 77 76 77 77 76 76 77 75 72 73 75 75 75 76 76 75 74 74 73 72 73
35 34 33 33 35 31 33 34 37 38 37 39 39 35 38 40 40 44 49 50 53 56 58 64 75 76 77 77 76 77 78 78 77 77 75 75 73 73 75 75 75 75 75 75 75 75 73 73 71
34 30 31 35 24 22 28 34 36 39 38 40 36 34 35 39 38 38 41 48 52 56 63 67 75 76 76 75 77 78 78 76 76 76 75 74 73 74 78 76 75 74 74 75 76 75 75 74 74
30 32 28 24 21 24 28 32 39 39 38 32 30 30 33 35 34 37 38 45 50 55 63 68 75 77 76 76 77 78 78 78 76 79 80 76 78 75 76 77 76 74 74 75 75 73 74 73 73
25 24 21 22 28 27 25 30 31 31 31 33 30 28 32 32 32 36 41 53 49 54 66 69 74 76 76 77 77 77 78 78 78 78 77 77 76 76 75 75 75 75 75 74 74 74 74 73 72
19 15 17 19 17 21 21 24 29 33 31 30 28 30 33 39 42 44 44 47 53 58 66 70 72 75 76 78 77 78 77 78 77 77 76 75 75 76 75 74 74 74 74 73 74 73 73 72 72
23 18 14 18 24 18 18 18 26 29 27 31 31 39 40 41 43 50 52 56 64 67 69 71 74 75 77 78 78 77 76 76 75 75 75 76 75 74 73 74 73 72 73 74 73 72 71 71 71

GFSSGP_sfc_dewp_369.txt.gz
Dewpoint
68 65 66 70 59 57 44 41 44 47 47 49 52 53 55 57 56 57 67 69 71 72 74 75 77 77 78 77 76 75 74 73 73 74 74 74 73 73 73 73 73 73 73 72 73 73 73 73 73
64 64 69 67 58 47 48 45 46 48 50 53 56 53 53 55 59 64 67 70 71 72 73 74 77 77 77 78 77 76 74 74 74 74 73 73 73 73 73 72 73 73 73 72 72 72 73 73 73
68 70 68 63 53 44 42 45 46 49 50 52 54 55 53 56 61 64 68 69 71 71 72 74 78 77 77 77 77 77 76 75 75 74 72 72 73 73 73 73 73 73 73 72 72 72 73 73 73
68 70 68 58 43 41 43 45 46 46 50 55 53 51 53 58 60 65 66 68 69 70 73 76 77 77 76 76 77 76 75 75 74 73 73 73 73 73 73 72 73 72 73 72 72 73 74 72 73
68 67 60 53 41 42 44 45 46 46 55 55 53 52 54 59 61 64 65 66 67 72 74 75 77 77 77 77 77 77 76 75 74 74 73 73 73 73 73 73 73 73 73 72 73 72 72 71 72
62 65 57 43 41 44 46 44 43 43 54 54 54 55 56 59 59 61 64 67 71 72 74 74 77 77 76 75 75 75 75 74 74 74 74 73 73 74 73 73 73 73 73 73 73 73 71 71 72
62 62 57 44 42 44 43 45 43 44 49 54 56 55 56 56 58 59 62 69 70 70 72 73 74 75 75 75 75 75 75 75 74 74 74 74 74 74 73 73 73 72 74 73 72 72 72 73 73
64 64 56 44 43 43 45 44 44 44 46 55 56 54 53 56 57 59 62 68 68 69 70 72 73 73 73 73 76 75 75 74 75 74 74 75 74 74 73 75 75 73 73 72 73 74 74 74 74
59 57 55 48 43 42 44 42 44 46 46 51 53 55 55 57 57 57 59 64 66 67 69 70 71 72 72 72 73 76 76 76 75 75 75 75 73 73 72 74 74 74 74 74 75 74 72 74 74
62 57 55 44 44 43 44 43 45 47 50 53 54 55 55 56 57 57 56 61 63 65 66 68 69 70 70 70 73 74 73 72 73 73 72 73 72 72 71 74 75 75 75 75 75 75 75 74 73
59 54 52 50 46 49 46 47 48 50 48 53 54 54 55 55 55 55 55 56 60 63 65 67 68 68 69 70 72 72 73 72 73 72 73 73 72 72 73 73 74 74 75 72 74 74 73 73 73
58 55 55 53 49 50 45 48 46 50 49 52 54 55 55 55 55 55 55 56 56 59 63 66 66 67 65 69 72 71 71 72 71 72 73 72 71 71 70 73 73 73 72 71 70 73 69 72 73
61 58 51 52 52 52 52 55 52 51 52 53 54 54 54 54 55 55 55 56 56 56 61 65 66 66 66 71 71 70 69 70 70 72 72 70 70 71 70 70 73 73 72 71 71 72 70 72 73
59 56 52 52 53 53 54 54 55 53 53 52 52 53 53 53 54 54 54 55 56 57 57 61 65 67 67 69 70 68 67 69 70 70 71 70 71 71 71 70 71 71 71 70 72 73 73 72 72
55 54 51 54 55 55 53 52 53 56 54 52 51 51 52 52 53 53 55 55 56 57 57 62 65 66 67 69 68 68 69 65 68 69 70 71 71 71 70 69 70 69 69 70 72 72 70 70 72
54 57 50 51 53 56 53 52 52 54 57 53 51 50 52 52 53 54 56 55 58 57 58 61 63 66 68 69 69 69 68 68 69 68 71 71 70 70 70 68 68 69 70 70 71 70 71 70 71
56 53 51 51 53 53 54 54 56 54 57 54 52 50 51 52 52 54 57 57 59 59 61 62 62 66 67 69 71 69 69 70 68 68 68 71 71 70 70 70 68 68 68 69 70 69 70 69 71
52 50 51 50 51 51 54 53 54 53 56 54 52 50 50 50 51 54 55 56 58 64 64 64 64 65 67 71 69 70 69 69 69 67 67 67 71 71 71 69 70 70 70 69 69 69 72 71 68
48 48 48 50 49 51 52 53 53 55 56 53 53 52 50 49 50 53 53 55 58 64 65 66 64 70 69 70 69 70 68 68 68 68 67 66 70 70 71 70 69 69 69 68 70 72 70 68 68
46 42 41 35 43 41 51 55 53 53 50 52 53 53 52 50 49 51 52 54 57 61 63 66 67 70 70 70 69 69 69 69 68 68 67 68 69 70 70 69 69 69 69 68 68 69 70 70 69
41 39 41 34 36 39 42 48 44 48 48 50 53 54 53 52 52 52 53 56 58 60 65 65 67 71 70 71 71 71 71 70 70 69 69 69 68 69 70 70 69 69 68 68 67 67 70 67 70
44 38 38 35 39 39 42 39 40 39 43 44 44 53 53 54 54 55 56 58 58 62 64 68 68 69 71 70 70 69 68 68 68 69 70 69 70 69 70 70 71 69 68 67 68 70 70 70 67
39 41 39 37 40 42 44 43 38 37 37 40 42 47 49 53 54 56 57 58 59 60 64 66 69 70 70 72 69 71 71 70 71 71 70 70 71 70 70 70 70 71 71 67 66 67 70 71 70
34 33 41 45 42 40 41 40 41 38 38 40 39 41 44 47 52 53 58 59 59 60 62 65 69 69 71 72 72 71 70 71 71 71 74 75 71 73 73 71 71 71 70 71 70 70 70 70 70
37 37 36 37 38 37 41 40 40 42 38 38 39 40 43 44 47 48 55 57 59 60 61 64 69 69 71 73 74 73 73 74 74 74 74 73 72 72 72 73 73 73 73 74 73 72 72 71 70
34 34 34 31 32 34 39 36 37 39 39 39 42 40 42 43 43 44 50 53 56 58 58 63 68 69 72 73 75 75 75 75 75 75 74 73 73 73 73 73 73 73 73 73 73 73 73 72 71
29 27 23 23 26 34 31 35 39 39 39 41 34 32 35 37 42 46 52 52 56 57 54 56 70 72 73 73 74 75 75 75 74 74 75 75 74 74 73 73 73 73 72 72 73 73 72 72 72
37 27 20 26 25 27 33 33 35 41 39 33 32 32 41 42 46 55 57 58 59 55 52 66 73 73 73 74 74 75 75 75 74 74 73 73 73 73 73 72 72 72 72 72 72 72 72 72 72
24 21 18 22 22 24 28 29 32 38 33 30 33 37 42 42 46 50 54 58 57 52 54 72 73 74 74 74 75 75 75 75 75 74 74 74 73 73 73 72 71 70 71 71 71 71 71 71 71
24 22 28 25 20 22 25 25 31 33 34 36 44 47 47 46 48 49 53 59 64 57 68 70 73 73 73 75 74 74 75 75 75 74 73 73 73 73 71 71 71 71 70 70 71 70 70 70 70

GFSSGP_sfc_dewp_375.txt.gz
Dewpoint
72 70 69 69 57 55 47 49 50 49 52 55 55 55 56 60 57 54 68 69 70 73 74 74 76 75 74 74 74 74 74 73 74 75 74 74 74 74 74 74 73 73 73 73 73 73 72 71 70
68 67 70 66 52 45 47 49 49 51 54 56 55 56 56 59 66 67 68 69 72 74 74 74 76 76 74 74 74 74 73 73 73 74 74 74 74 74 74 74 73 72 72 73 73 73 73 72 72
70 72 65 60 53 44 44 48 52 53 54 55 53 56 59 64 67 66 70 70 73 73 74 74 77 76 74 74 74 74 74 74 74 74 74 73 73 73 73 73 73 73 72 72 72 72 74 73 73
69 70 67 58 52 49 46 49 55 53 53 53 55 56 61 66 66 69 70 72 72 73 74 76 77 76 75 74 74 74 74 74 74 74 73 73 73 73 73 73 73 74 73 73 73 72 74 73 73
69 66 59 56 48 45 47 51 52 53 51 52 54 57 62 66 69 70 71 71 71 72 74 75 78 78 77 76 74 74 74 74 74 73 73 72 73 74 73 73 73 73 74 73 73 74 74 73 73
59 62 53 47 44 45 50 55 54 52 54 56 58 58 61 68 69 70 70 70 71 73 74 75 76 78 77 75 75 75 75 74 74 73 73 73 73 73 73 73 73 73 73 74 73 74 74 72 73
61 59 54 54 45 45 49 56 53 54 54 54 57 56 63 67 69 69 69 70 71 73 74 74 74 74 75 75 75 75 75 74 74 74 74 74 74 73 74 74 74 74 74 74 73 74 74 72 72
63 60 56 56 45 44 50 52 55 53 55 56 58 57 61 65 68 68 68 70 71 72 73 74 74 73 73 73 76 76 76 75 75 74 74 74 74 74 74 74 74 73 74 74 74 74 74 73 73
63 52 52 52 46 45 45 49 54 56 55 56 56 58 62 66 67 67 70 70 71 71 72 73 73 72 73 73 74 76 75 75 75 74 74 74 73 73 73 73 74 73 74 74 73 73 74 74 75
60 54 52 55 53 44 45 50 53 55 54 54 56 61 64 65 66 68 69 69 69 70 72 73 72 72 72 73 73 74 73 72 72 73 72 73 73 73 73 74 74 74 74 74 74 75 75 74 73
60 53 55 55 57 46 44 48 53 53 53 54 55 58 63 64 66 67 68 68 69 69 71 72 72 72 72 72 72 73 73 73 73 73 73 72 73 73 74 72 72 72 75 73 74 74 74 73 73
57 58 58 59 58 48 48 51 52 53 53 54 56 57 62 64 65 66 66 67 67 67 69 70 71 71 71 71 71 73 73 73 72 72 72 72 72 72 71 72 72 73 73 74 73 73 73 73 72
60 59 59 59 58 54 54 53 51 54 55 55 56 56 58 63 64 65 65 66 66 66 67 68 70 70 70 69 72 72 72 73 72 72 72 72 72 71 71 72 72 73 73 72 72 72 72 71 70
60 60 60 59 58 55 51 53 54 55 54 54 55 55 56 56 60 64 64 64 65 65 65 66 68 69 69 69 71 71 71 71 72 71 71 72 72 71 70 70 71 72 73 72 71 71 71 70 69
60 58 59 57 57 56 54 53 53 55 54 54 54 55 56 56 56 57 62 62 63 64 65 66 67 68 68 69 70 71 71 71 71 71 71 72 72 71 71 70 70 72 72 72 71 71 71 69 70
59 61 54 53 56 55 51 51 54 55 54 53 54 54 55 55 56 56 56 59 60 63 64 66 67 67 67 66 69 70 70 70 70 70 70 71 71 70 70 70 70 71 72 71 71 71 71 70 70
58 52 53 50 52 54 51 48 53 54 53 53 53 54 54 55 55 56 56 56 58 61 63 65 66 66 67 67 68 69 69 68 68 69 70 70 70 70 70 69 69 69 69 69 70 70 70 70 69
50 51 50 50 52 51 52 50 53 54 52 51 52 52 53 53 53 54 55 56 57 58 62 65 66 66 66 67 67 68 67 67 68 68 69 69 69 69 69 69 69 67 67 67 68 68 70 70 70
53 53 53 53 53 51 51 51 52 53 54 51 51 51 51 52 53 54 55 56 57 58 61 64 65 66 66 67 67 67 66 67 67 68 67 68 70 69 69 68 68 68 67 67 68 68 68 69 70
55 53 52 52 51 51 51 52 52 52 52 54 52 50 50 51 51 53 56 56 57 58 60 62 63 64 66 66 66 67 67 67 66 67 68 67 67 69 69 69 68 67 68 68 68 69 69 69 69
49 49 49 50 50 53 51 48 48 51 54 55 55 51 50 50 50 52 54 56 57 58 59 60 62 63 64 65 67 68 68 68 67 67 67 67 68 68 69 69 69 70 69 68 68 67 67 65 68
50 48 48 48 49 46 46 40 40 47 50 54 55 53 51 50 50 51 53 55 56 58 59 60 60 62 63 65 66 65 64 65 65 66 67 67 68 68 69 69 70 69 70 69 68 68 68 66 65
44 43 44 41 41 44 44 36 36 42 46 49 52 54 53 51 49 50 52 53 55 57 60 60 61 61 63 65 65 65 65 65 66 67 68 68 68 69 69 69 69 69 69 69 69 68 68 69 68
46 42 43 43 38 34 38 36 35 38 41 45 50 53 54 53 52 50 51 52 53 56 59 61 61 62 62 66 66 66 65 65 67 68 68 68 69 69 70 69 69 70 70 69 69 68 67 68 68
39 38 36 36 36 35 40 36 36 41 41 44 47 48 54 54 54 52 51 51 51 54 56 60 61 62 63 64 67 67 67 66 67 68 68 68 69 72 72 71 69 69 70 69 69 69 68 68 68
35 36 36 34 35 33 40 36 37 39 43 42 41 42 47 54 54 54 54 51 51 53 57 58 60 61 62 63 66 67 67 67 68 69 68 69 69 71 72 72 72 70 70 69 69 70 70 69 68
27 28 36 31 36 33 38 34 35 38 37 39 41 42 43 46 50 54 55 56 55 56 58 60 62 61 62 64 65 67 69 68 69 71 72 72 73 73 73 72 71 71 71 71 71 71 71 71 71
24 22 18 22 29 29 30 30 32 34 35 39 41 42 45 47 49 52 54 55 56 59 60 60 59 61 65 67 67 69 72 68 68 66 64 63 69 72 72 72 71 71 71 70 70 69 69 69 70
22 23 19 20 28 27 27 27 35 38 35 42 46 48 49 49 49 51 51 53 55 56 56 56 62 70 70 70 71 72 66 65 64 64 65 64 64 71 72 71 71 70 70 70 69 68 69 69 69
27 23 21 20 23 27 30 35 42 43 44 47 49 50 51 53 53 54 56 58 59 59 61 67 70 71 72 71 70 68 66 66 66 68 68 67 65 72 72 71 71 70 70 69 68 67 68 68 68

GFSSGP_sfc_dewp_378.txt.gz
Dewpoint
75 73 72 67 55 53 47 49 51 49 51 56 55 54 54 60 56 54 67 68 71 73 74 74 76 75 75 74 74 74 74 74 73 74 73 73 73 73 73 73 72 72 72 71 71 71 71 70 69
70 68 70 66 52 44 46 48 49 51 55 56 56 57 58 60 66 67 67 69 71 73 74 73 75 76 75 75 74 74 74 73 74 74 74 74 74 74 74 73 73 72 73 72 71 71 71 71 72
68 69 65 59 51 44 45 49 50 54 56 54 53 58 60 64 66 65 69 70 72 72 74 72 76 75 74 74 75 74 74 73 74 74 74 74 74 73 73 73 73 72 72 73 73 72 72 72 72
69 70 67 57 51 49 46 51 52 53 54 55 57 57 63 67 65 69 69 71 72 73 74 75 76 74 74 74 74 74 74 74 74 74 74 73 73 72 73 73 73 73 73 72 72 72 73 73 72
69 66 57 53 51 46 49 53 55 52 52 54 56 59 63 67 70 69 70 71 72 72 73 74 76 76 76 74 74 74 74 74 74 74 73 73 73 73 73 73 73 73 73 72 72 73 73 73 73
59 61 51 45 45 47 51 54 53 53 56 58 59 61 63 69 69 70 70 70 72 72 73 74 76 76 75 74 74 74 74 74 74 73 73 73 73 74 73 73 73 73 73 74 73 73 74 73 72
60 58 52 54 46 48 52 56 52 53 54 56 59 58 63 68 69 70 70 71 72 73 74 74 74 75 75 74 74 74 74 74 74 73 73 73 74 73 73 73 73 73 74 74 74 73 74 74 72
62 59 55 54 45 44 54 54 55 54 55 58 60 60 61 66 69 69 70 70 72 73 74 74 74 74 73 72 75 75 75 74 74 74 74 74 74 73 73 75 74 74 74 74 74 74 74 74 73
63 52 50 51 47 44 53 53 55 56 55 56 57 62 63 68 68 68 69 70 70 72 72 73 73 73 73 73 73 76 75 75 74 74 74 74 73 73 74 74 74 74 73 73 74 74 74 74 73
58 51 51 55 57 54 48 52 54 55 54 55 61 64 66 67 66 68 68 68 69 70 72 72 73 72 73 73 74 74 73 74 73 74 72 73 73 73 73 74 74 73 74 74 74 74 73 73 74
60 52 57 57 58 58 46 52 54 54 53 54 60 63 65 66 66 67 67 67 68 70 71 72 72 72 72 73 73 73 73 73 73 73 73 73 73 73 74 74 73 73 74 73 73 75 75 74 73
55 59 59 60 59 56 48 52 53 53 53 56 62 64 65 65 66 67 66 67 68 69 70 72 72 72 72 72 72 73 73 73 72 73 73 72 72 72 72 73 73 73 73 74 74 74 74 74 74
59 58 58 60 59 56 52 54 53 54 55 58 61 63 64 65 66 67 67 67 68 68 69 70 72 72 72 72 71 72 73 73 73 73 73 72 72 72 72 72 72 73 74 73 73 74 73 73 73
61 60 60 59 59 55 52 54 54 55 55 57 60 62 63 64 65 66 66 66 67 67 68 69 70 71 71 71 70 71 72 72 73 72 72 72 72 72 72 71 72 72 73 74 73 73 72 71 72
60 57 59 56 57 55 55 51 54 55 55 55 56 59 63 63 65 65 65 65 66 66 67 67 69 70 70 70 69 71 71 71 72 72 72 72 72 72 72 71 71 71 73 73 73 72 72 71 71
58 58 54 54 55 55 51 50 55 55 54 54 54 55 56 58 61 64 64 65 65 65 66 66 67 67 68 68 68 69 71 71 71 71 72 71 72 72 71 71 71 71 72 73 72 72 72 71 71
55 51 53 53 52 54 50 49 54 55 54 53 54 54 55 56 56 58 59 63 63 65 65 66 67 66 67 68 68 70 71 71 71 71 71 71 71 72 71 70 71 71 72 72 72 71 72 71 72
49 50 50 51 52 52 51 49 52 54 53 53 53 54 55 55 55 56 57 57 59 62 65 66 67 67 68 69 68 69 70 70 70 70 70 71 71 72 71 71 70 70 69 69 70 71 71 72 71
52 52 52 54 53 51 50 51 52 53 53 52 52 53 53 54 55 56 56 57 58 59 63 65 66 68 68 67 67 67 67 68 68 69 69 70 70 70 71 70 70 70 68 69 69 69 69 70 72
55 54 53 52 52 51 51 51 52 53 53 52 52 51 52 52 52 53 55 56 57 58 60 63 65 67 67 67 67 68 67 68 68 68 69 69 70 71 70 70 69 69 69 69 69 69 69 70 71
51 51 50 48 52 53 51 48 51 52 53 54 55 53 52 51 51 52 54 56 57 58 59 62 65 66 67 67 68 68 69 69 68 68 68 68 69 69 71 71 70 70 70 69 70 70 69 67 69
48 51 50 47 49 45 46 40 41 47 52 54 53 56 53 51 52 53 53 55 57 57 59 61 64 65 66 68 67 67 66 65 66 68 68 68 69 69 69 70 71 71 71 70 70 70 69 68 65
48 44 47 45 43 47 45 40 38 44 47 49 52 55 55 52 51 51 51 54 56 57 58 60 63 64 65 66 67 66 66 66 66 68 69 69 69 70 70 70 70 70 71 71 70 70 69 69 68
44 42 42 42 38 37 41 41 37 40 45 48 50 52 55 56 52 51 52 54 55 58 59 61 63 63 64 65 66 66 66 66 66 68 69 70 70 70 70 70 70 70 71 71 70 70 70 69 69
40 38 36 36 36 35 39 40 40 39 41 46 49 49 53 55 54 52 52 52 54 56 58 61 64 63 64 64 66 66 66 67 67 68 69 69 70 71 72 71 70 71 71 71 71 70 70 69 69
39 37 35 32 34 34 42 36 37 39 40 42 46 45 47 52 55 54 52 52 53 56 58 60 62 63 65 65 67 68 69 68 70 70 70 71 69 67 68 70 72 71 70 70 70 70 69 70 69
34 35 37 32 34 35 37 37 36 40 39 42 43 44 46 47 52 54 55 57 56 55 57 60 61 63 64 64 66 67 69 69 70 71 70 67 66 66 65 67 68 72 72 72 71 70 70 71 70
26 24 15 28 32 27 31 32 32 40 40 40 43 46 49 50 50 52 53 55 56 57 61 60 60 62 64 66 67 68 70 70 69 67 66 66 65 64 64 66 68 71 72 72 72 72 72 72 72
23 22 20 24 28 27 28 28 34 42 41 45 50 51 52 53 54 55 58 62 61 62 65 67 69 71 71 71 70 68 67 66 66 66 66 65 65 64 65 65 67 72 71 71 70 71 71 70 70
30 22 20 20 20 29 30 33 42 47 48 50 49 51 52 55 58 62 65 67 68 67 68 70 70 69 69 70 71 67 67 67 67 67 67 67 66 66 65 65 70 71 70 70 70 70 70 69 69